Location: ??????
(36.0418°N, 43.6351°E)
Time: 21:14:06
(UTC+00:00)

COSMO-SKYMED 1 - Pass Details

Date: 07 March 2021
Orbit: 621 x 623 km, 97.9° (Epoch: 19 April)

Event Time Altitude Azimuth Distance (km) Brightness Sun altitude
Rises 02:18:11 0° 164° (SSE) 2,888 6.1 -14.9°
Reaches altitude 10° 02:20:22 10° 164° (SSE) 1,986 5.3 -14.4°
Maximum altitude 02:24:41 82° 77° (ENE) 634 2.6 -13.5°
Drops below altitude 10° 02:29:03 10° 350° (N) 2,000 5.1 -12.7°
Sets 02:31:14 0° 349° (N) 2,911 5.9 -12.2°
